Miscellaneous Local Product
Issued by NWS Hastings, NE

Home | Current Version | Previous Version | Text Only | Print | Product List | Glossary Off
Versions: 1 2 3 4 5 6 7 8 9 10 11 12 13 14 15 16 17 18 19 20 21 22 23 24 25 26 27 28 29 30 31 32 33 34 35 36 37 38 39 40 41 42 43 44 45 46 47 48 49 50

152
AXUS43 KGID 232102
MISGRI

GID CWA HOURLY WEATHER ROUNDUP
NATIONAL WEATHER SERVICE HASTINGS NE
400 PM CDT FRI SEP 23 2016

NOTE: "FAIR" INDICATES FEW OR NO CLOUDS BELOW 12,000 FEET WITH NO
SIGNIFICANT WEATHER AND/OR OBSTRUCTIONS TO VISIBILITY.

...SOUTH CENTRAL NEBRASKA...

CITY           SKY/WX    TMP DP  RH WIND       PRES   REMARKS
GRAND ISLAND   SUNNY     88  58  36 S20G29    29.87F
HASTINGS       SUNNY     88  56  33 S18G30    29.88F
KEARNEY        SUNNY     90  57  33 SE23G32   29.84F
ORD            SUNNY     89  53  29 S17G32    29.82F
YORK           SUNNY     88  57  35 S18G25    29.89F
AURORA         SUNNY     88  55  32 S21G30    29.88S
LEXINGTON      SUNNY     89  53  29 S25G37    29.83S
HOLDREGE       SUNNY     87  51  28 S23G35    29.85F
HEBRON         SUNNY     88  58  36 SE16G26   29.90S

...NEBRASKA PANHANDLE...

CITY           SKY/WX    TMP DP  RH WIND       PRES   REMARKS
CHADRON        SUNNY     74  58  57 N6        29.73F
ALLIANCE       SUNNY     86  55  34 SE25G35   29.71F
SCOTTSBLUFF    SUNNY     84  57  39 N6        29.70F
SIDNEY         SUNNY     89  53  29 S26G38    29.74F

...WESTERN AND NORTH CENTRAL NEBRASKA...

CITY           SKY/WX    TMP DP  RH WIND       PRES   REMARKS
VALENTINE      SUNNY     90  54  29 S29G40    29.72F
AINSWORTH      SUNNY     88  56  34 SE28G39   29.77F
ONEILL         SUNNY     90  50  25 S20G31    29.82F
BROKEN BOW     SUNNY     88  55  32 S22G38    29.83F
IMPERIAL       LGT RAIN  90  50  25 S30G44    29.75F
NORTH PLATTE   SUNNY     92  55  28 S23G35    29.76F HX  90
MCCOOK         SUNNY     89  56  32 SE23G37   29.79F

...EASTERN NEBRASKA...

CITY           SKY/WX    TMP DP  RH WIND       PRES   REMARKS
NORFOLK        SUNNY     90  55  30 S22G29    29.86F
SO SIOUX CITY  SUNNY     91  61  36 S18G25    29.88F HX  91
TEKAMAH        SUNNY     89  61  38 SE14G26   29.90F
COLUMBUS       SUNNY    N/A N/A N/A S15G24    29.87F
ALBION         SUNNY     88  51  28 S20G32    29.86F
OMAHA EPPLEY   MOSUNNY   90  61  37 SE20      29.91F HX  90
OFFUTT AFB     SUNNY     89  60  37 SE18G24   29.91F
MILLARD        SUNNY     91  61  37 S12G20    29.90F HX  90
LINCOLN        SUNNY     91  58  32 S16G30    29.89F HX  90
NEBRASKA CITY  SUNNY     88  38  17 S15       29.94F
BEATRICE       SUNNY     89  61  38 S17G24    29.91F
FALLS CITY     SUNNY     87  64  46 S17       29.94F

...NORTHERN KANSAS...

CITY           SKY/WX    TMP DP  RH WIND       PRES   REMARKS
GOODLAND       SUNNY     87  52  29 S28G43    29.78F
HILL CITY      LGT RAIN  88  57  34 S21G31    29.84F
NORTON         CLEAR     88  46  23 SE21G29   29.83F
PHILLIPSBURG   MOSUNNY   93  52  24 S18G26    29.84F HX  90
SMITH CENTER   SUNNY     90  55  31 S21G35    29.86F
HAYS           MOSUNNY   91  55  29 S22G31    29.85F
CONCORDIA      MOSUNNY   89  62  40 S18G29    29.90F
SALINA         MOSUNNY   88  63  43 SE24G31   29.90F
TOPEKA         SUNNY     88  62  41 S15G22    29.95F



USA.gov is the U.S. government's official web portal to all federal, state and local government web resources and services.